Time,TemperatureF,DewpointF,PressureIn,WindDirection,WindDirectionDegrees,WindSpeedMPH,WindSpeedGustMPH,Humidity,HourlyPrecipIn,Conditions,Clouds,dailyrainin,SolarRadiationWatts/m^2,SoftwareType,DateUTC
2013-09-03 00:03:00,81.0,69.0,-100.00,SE,145,4.0,6.0,67,0.00,,,0.05,0.000000,,2013-09-03 05:03:00,
2013-09-03 00:43:00,79.0,66.0,-100.00,SW,222,1.0,6.0,65,0.00,,,0.05,0.000000,,2013-09-03 05:43:00,
2013-09-03 00:52:00,79.0,66.0,-100.00,SW,222,1.0,6.0,65,0.00,,,0.05,0.000000,,2013-09-03 05:52:00,
2013-09-03 01:02:00,79.0,66.0,-100.00,SW,222,1.0,6.0,65,0.00,,,0.05,0.000000,,2013-09-03 06:02:00,
2013-09-03 01:43:00,76.0,69.0,-100.00,SE,145,2.0,2.0,80,0.00,,,0.05,0.000000,,2013-09-03 06:43:00,
2013-09-03 01:52:00,76.0,69.0,-100.00,SE,145,2.0,2.0,80,0.00,,,0.05,0.000000,,2013-09-03 06:52:00,
2013-09-03 02:02:00,76.0,69.0,-100.00,SE,145,2.0,2.0,80,0.00,,,0.05,0.000000,,2013-09-03 07:02:00,
2013-09-03 02:42:00,76.0,70.0,-100.00,ENE,61,0.0,3.0,82,0.00,,,0.05,0.000000,,2013-09-03 07:42:00,
2013-09-03 02:53:00,76.0,70.0,-100.00,ENE,61,0.0,3.0,82,0.00,,,0.05,0.000000,,2013-09-03 07:53:00,
2013-09-03 03:03:00,76.0,70.0,-100.00,ENE,61,0.0,3.0,82,0.00,,,0.05,0.000000,,2013-09-03 08:03:00,
2013-09-03 03:42:00,75.0,69.0,-100.00,SE,129,2.0,3.0,83,0.00,,,0.05,0.000000,,2013-09-03 08:42:00,
2013-09-03 03:52:00,75.0,69.0,-100.00,SE,129,2.0,3.0,83,0.00,,,0.05,0.000000,,2013-09-03 08:52:00,
2013-09-03 04:02:00,75.0,69.0,-100.00,SE,129,2.0,3.0,83,0.00,,,0.05,0.000000,,2013-09-03 09:02:00,
2013-09-03 04:43:00,75.0,70.0,-100.00,ENE,70,2.0,3.0,85,0.00,,,0.05,0.000000,,2013-09-03 09:43:00,
2013-09-03 04:53:00,75.0,70.0,-100.00,ENE,70,2.0,3.0,85,0.00,,,0.05,0.000000,,2013-09-03 09:53:00,
2013-09-03 05:03:00,75.0,70.0,-100.00,ENE,70,2.0,3.0,85,0.00,,,0.05,0.000000,,2013-09-03 10:03:00,
2013-09-03 05:42:00,74.0,68.0,-100.00,ENE,65,2.0,4.0,81,0.00,,,0.05,0.000000,,2013-09-03 10:42:00,
2013-09-03 05:53:00,74.0,68.0,-100.00,ENE,65,2.0,4.0,81,0.00,,,0.05,0.000000,,2013-09-03 10:53:00,
2013-09-03 06:02:00,74.0,68.0,-100.00,ENE,65,2.0,4.0,81,0.00,,,0.05,0.000000,,2013-09-03 11:02:00,
2013-09-03 06:43:00,74.0,66.0,-100.00,NE,38,4.0,5.0,77,0.00,,,0.05,0.000000,,2013-09-03 11:43:00,
2013-09-03 06:52:00,74.0,66.0,-100.00,NE,38,4.0,5.0,77,0.00,,,0.05,0.000000,,2013-09-03 11:52:00,
2013-09-03 07:02:00,74.0,66.0,-100.00,NE,38,4.0,5.0,77,0.00,,,0.05,0.000000,,2013-09-03 12:02:00,
2013-09-03 07:42:00,74.0,63.0,-100.00,NE,45,3.0,7.0,69,0.00,,,0.05,1.000000,,2013-09-03 12:42:00,
2013-09-03 07:52:00,74.0,63.0,-100.00,NE,45,3.0,7.0,69,0.00,,,0.05,1.000000,,2013-09-03 12:52:00,
2013-09-03 08:02:00,74.0,63.0,-100.00,NE,45,3.0,7.0,69,0.00,,,0.05,1.000000,,2013-09-03 13:02:00,
2013-09-03 08:42:00,76.0,65.0,-100.00,NNE,26,2.0,5.0,69,0.00,,,0.05,29.000000,,2013-09-03 13:42:00,
2013-09-03 08:52:00,76.0,65.0,-100.00,NNE,26,2.0,5.0,69,0.00,,,0.05,29.000000,,2013-09-03 13:52:00,
2013-09-03 09:01:00,76.0,65.0,-100.00,NNE,26,2.0,5.0,69,0.00,,,0.05,29.000000,,2013-09-03 14:01:00,
2013-09-03 09:42:00,81.0,66.0,-100.00,North,5,4.0,7.0,61,0.00,,,0.04,100.000000,,2013-09-03 14:42:00,
2013-09-03 09:52:00,81.0,66.0,-100.00,North,5,4.0,7.0,61,0.00,,,0.04,100.000000,,2013-09-03 14:52:00,
2013-09-03 10:02:00,81.0,66.0,-100.00,North,5,4.0,7.0,61,0.00,,,0.04,100.000000,,2013-09-03 15:02:00,
2013-09-03 10:43:00,85.0,66.0,-100.00,North,4,5.0,9.0,53,0.00,,,0.02,462.000000,,2013-09-03 15:43:00,
2013-09-03 10:54:00,85.0,66.0,-100.00,North,4,5.0,9.0,53,0.00,,,0.02,462.000000,,2013-09-03 15:54:00,
2013-09-03 11:04:00,85.0,66.0,-100.00,North,4,5.0,9.0,53,0.00,,,0.02,462.000000,,2013-09-03 16:04:00,
2013-09-03 11:43:00,90.0,66.0,-100.00,North,0,4.0,9.0,46,0.00,,,0.00,675.000000,,2013-09-03 16:43:00,
2013-09-03 11:54:00,90.0,66.0,-100.00,North,0,4.0,9.0,46,0.00,,,0.00,675.000000,,2013-09-03 16:54:00,
2013-09-03 12:03:00,90.0,66.0,-100.00,North,0,4.0,9.0,46,0.00,,,0.00,675.000000,,2013-09-03 17:03:00,
2013-09-03 12:43:00,93.0,64.0,-100.00,NNW,329,5.0,9.0,39,0.00,,,0.00,821.000000,,2013-09-03 17:43:00,
2013-09-03 12:52:00,93.0,64.0,-100.00,NNW,329,5.0,9.0,39,0.00,,,0.00,821.000000,,2013-09-03 17:52:00,
2013-09-03 13:02:00,93.0,64.0,-100.00,NNW,329,5.0,9.0,39,0.00,,,0.00,821.000000,,2013-09-03 18:02:00,
2013-09-03 13:43:00,95.0,65.0,-100.00,NNW,337,4.0,8.0,38,0.00,,,0.00,930.000000,,2013-09-03 18:43:00,
2013-09-03 13:52:00,95.0,65.0,-100.00,NNW,337,4.0,8.0,38,0.00,,,0.00,930.000000,,2013-09-03 18:52:00,
2013-09-03 14:02:00,95.0,65.0,-100.00,NNW,337,4.0,8.0,38,0.00,,,0.00,930.000000,,2013-09-03 19:02:00,
2013-09-03 14:42:00,97.0,66.0,-100.00,NNW,329,4.0,8.0,36,0.00,,,0.00,959.000000,,2013-09-03 19:42:00,
2013-09-03 14:52:00,97.0,66.0,-100.00,NNW,329,4.0,8.0,36,0.00,,,0.00,959.000000,,2013-09-03 19:52:00,
2013-09-03 15:02:00,97.0,66.0,-100.00,NNW,329,4.0,8.0,36,0.00,,,0.00,959.000000,,2013-09-03 20:02:00,
2013-09-03 15:42:00,99.0,65.0,-100.00,NNW,339,5.0,9.0,33,0.00,,,0.00,945.000000,,2013-09-03 20:42:00,
2013-09-03 15:53:00,99.0,65.0,-100.00,NNW,339,5.0,9.0,33,0.00,,,0.00,945.000000,,2013-09-03 20:53:00,
2013-09-03 16:01:00,99.0,65.0,-100.00,NNW,339,5.0,9.0,33,0.00,,,0.00,945.000000,,2013-09-03 21:01:00,
2013-09-03 16:44:00,99.0,64.0,-100.00,North,0,4.0,10.0,32,0.00,,,0.00,819.000000,,2013-09-03 21:44:00,
2013-09-03 16:54:00,99.0,64.0,-100.00,North,0,4.0,10.0,32,0.00,,,0.00,819.000000,,2013-09-03 21:54:00,
2013-09-03 17:04:00,99.0,64.0,-100.00,North,0,4.0,10.0,32,0.00,,,0.00,819.000000,,2013-09-03 22:04:00,
2013-09-03 17:43:00,100.0,62.0,-100.00,NNW,342,4.0,8.0,29,0.00,,,0.00,666.000000,,2013-09-03 22:43:00,
2013-09-03 17:53:00,100.0,62.0,-100.00,NNW,342,4.0,8.0,29,0.00,,,0.00,666.000000,,2013-09-03 22:53:00,
2013-09-03 18:04:00,100.0,62.0,-100.00,NNW,342,4.0,8.0,29,0.00,,,0.00,666.000000,,2013-09-03 23:04:00,
2013-09-03 18:42:00,98.0,61.0,-100.00,North,358,5.0,10.0,30,0.00,,,0.00,452.000000,,2013-09-03 23:42:00,
2013-09-03 18:54:00,98.0,61.0,-100.00,North,358,5.0,10.0,30,0.00,,,0.00,452.000000,,2013-09-03 23:54:00,
2013-09-03 19:02:00,98.0,61.0,-100.00,North,358,5.0,10.0,30,0.00,,,0.00,452.000000,,2013-09-04 00:02:00,
2013-09-03 19:42:00,96.0,61.0,-100.00,NNW,339,5.0,9.0,32,0.00,,,0.00,238.000000,,2013-09-04 00:42:00,
2013-09-03 19:52:00,96.0,61.0,-100.00,NNW,339,5.0,9.0,32,0.00,,,0.00,238.000000,,2013-09-04 00:52:00,
2013-09-03 20:01:00,96.0,61.0,-100.00,NNW,339,5.0,9.0,32,0.00,,,0.00,238.000000,,2013-09-04 01:01:00,
2013-09-03 20:42:00,88.0,56.0,-100.00,East,97,2.0,7.0,34,0.00,,,0.00,18.000000,,2013-09-04 01:42:00,
2013-09-03 20:53:00,88.0,56.0,-100.00,East,97,2.0,7.0,34,0.00,,,0.00,18.000000,,2013-09-04 01:53:00,
2013-09-03 21:02:00,88.0,56.0,-100.00,East,97,2.0,7.0,34,0.00,,,0.00,18.000000,,2013-09-04 02:02:00,
2013-09-03 22:44:00,81.0,57.0,-100.00,East,99,2.0,4.0,44,-99.99,,,0.00,0.000000,,2013-09-04 03:44:00,
2013-09-03 22:54:00,81.0,57.0,-100.00,East,99,2.0,4.0,44,-99.99,,,0.00,0.000000,,2013-09-04 03:54:00,
2013-09-03 23:04:00,81.0,57.0,-100.00,East,99,2.0,4.0,44,-99.99,,,0.00,0.000000,,2013-09-04 04:04:00,
2013-09-03 23:54:00,78.0,57.0,-100.00,East,84,1.0,3.0,48,0.00,,,0.00,0.000000,,2013-09-04 04:54:00,